Location: Shenandoah County Park
(38.9356°N, 78.4524°W)
Time: 14:09:36
(UTC-05:00)

Vanguard 2 Rocket - Pass Details

Date: 11 December 2023
Orbit: 555 x 3309 km, 32.9° (Epoch: 03 March)

Event Time Altitude Azimuth Distance (km) Brightness Sun altitude
Rises 12:46:53 0° 236° (WSW) 5,099 11.3 27.3°
Reaches altitude 10° 12:49:46 10° 232° (SW) 4,415 11.2 27.2°
Maximum altitude 13:02:43 59° 157° (SSE) 3,076 10.5 26.7°
Drops below altitude 10° 13:21:50 10° 86° (E) 6,262 11.0 25.6°
Sets 13:26:52 0° 83° (E) 7,279 11.2 25.3°
